WGN387 KCLT-KMIA

Flight info

Callsign WGN387
Flight time 1h 32m
Altitude 37000
Route ICONS5 NOOKS WURFL Q83 JEVED Q97 DEBRL CSTAL3
Aircraft MD11/H-SDE1E2E3FGHIJ2J3J4J5M1RWXY/LB1D1

Departure

Time 2026-05-07 22:38
Airport Charlotte Douglas International Airport (KCLT)

Arrival

Time 2026-05-08 00:11
Airport Miami International Airport (KMIA)
Time Latitude Longitude Altitude Speed Heading
2026-05-07 22:22 35.20732 -80.93721 723 ft 0 kts 202°
2026-05-07 22:34 35.20729 -80.93722 723 ft 2 kts 202°
2026-05-07 22:35 35.20706 -80.93732 724 ft 5 kts 197°
2026-05-07 22:35 35.20665 -80.93731 726 ft 7 kts 166°
2026-05-07 22:35 35.20614 -80.93713 725 ft 7 kts 162°
2026-05-07 22:35 35.20572 -80.93685 721 ft 7 kts 142°
2026-05-07 22:36 35.20536 -80.93634 725 ft 11 kts 128°
2026-05-07 22:36 35.20469 -80.93573 722 ft 10 kts 173°
2026-05-07 22:36 35.20394 -80.93572 720 ft 12 kts 176°
2026-05-07 22:36 35.20296 -80.93563 719 ft 18 kts 175°
2026-05-07 22:37 35.20154 -80.93550 721 ft 16 kts 175°
2026-05-07 22:37 35.20112 -80.93513 718 ft 5 kts 109°
2026-05-07 22:37 35.20110 -80.93455 716 ft 8 kts 85°
2026-05-07 22:37 35.20120 -80.93419 717 ft 2 kts 49°
2026-05-07 22:38 35.20141 -80.93417 721 ft 8 kts
2026-05-07 22:38 35.20317 -80.93431 723 ft 62 kts 356°
2026-05-07 22:38 35.21112 -80.93499 738 ft 160 kts 356°
2026-05-07 22:38 35.22213 -80.93648 1941 ft 149 kts 356°
2026-05-07 22:39 35.23249 -80.93685 3290 ft 151 kts 12°
2026-05-07 22:39 35.24321 -80.93365 4332 ft 176 kts 14°
2026-05-07 22:39 35.25683 -80.92849 4582 ft 235 kts 16°
2026-05-07 22:39 35.27272 -80.91951 5269 ft 265 kts 36°
2026-05-07 22:40 35.28513 -80.90251 6445 ft 276 kts 58°
2026-05-07 22:40 35.29105 -80.87963 7558 ft 291 kts 85°
2026-05-07 22:40 35.28863 -80.85522 8676 ft 300 kts 110°
2026-05-07 22:40 35.27826 -80.83312 9757 ft 301 kts 136°
2026-05-07 22:41 35.26185 -80.81661 10340 ft 317 kts 156°
2026-05-07 22:41 35.24061 -80.80817 10871 ft 324 kts 182°
2026-05-07 22:41 35.21842 -80.81015 12022 ft 319 kts 197°
2026-05-07 22:41 35.19679 -80.81589 13272 ft 318 kts 201°
2026-05-07 22:42 35.17522 -80.82240 14454 ft 321 kts 203°
2026-05-07 22:42 35.15333 -80.82904 15517 ft 330 kts 204°
2026-05-07 22:42 35.13014 -80.83603 15897 ft 354 kts 203°
2026-05-07 22:42 35.11577 -80.84017 16440 ft 358 kts 202°
2026-05-07 22:43 35.11287 -80.84097 16550 ft 359 kts 202°
2026-05-07 22:43 35.08832 -80.84765 17469 ft 364 kts 203°
2026-05-07 22:43 35.06346 -80.85446 18389 ft 368 kts 203°
2026-05-07 22:43 35.04952 -80.85830 18880 ft 370 kts 204°
2026-05-07 22:44 35.02755 -80.86424 19623 ft 373 kts 203°
2026-05-07 22:44 35.00209 -80.87107 20446 ft 376 kts 203°
2026-05-07 22:44 34.97677 -80.87791 21222 ft 380 kts 204°
2026-05-07 22:44 34.95090 -80.88490 21939 ft 382 kts 204°
2026-05-07 22:45 34.92480 -80.89193 22639 ft 386 kts 204°
2026-05-07 22:45 34.89851 -80.89903 23450 ft 389 kts 204°
2026-05-07 22:45 34.87199 -80.90622 24160 ft 392 kts 204°
2026-05-07 22:45 34.84523 -80.91345 24867 ft 396 kts 204°
2026-05-07 22:46 34.81819 -80.92073 25558 ft 400 kts 204°
2026-05-07 22:46 34.79088 -80.92813 26105 ft 405 kts 206°
2026-05-07 22:46 34.76314 -80.93590 26688 ft 409 kts 204°
2026-05-07 22:46 34.73525 -80.94333 27354 ft 413 kts 204°
2026-05-07 22:47 34.70739 -80.95074 28037 ft 417 kts 205°
2026-05-07 22:47 34.67889 -80.95829 28664 ft 421 kts 205°
2026-05-07 22:47 34.65010 -80.96587 29302 ft 425 kts 205°
2026-05-07 22:47 34.62070 -80.97234 29938 ft 434 kts 201°
2026-05-07 22:48 34.59052 -80.97643 30741 ft 437 kts 199°
2026-05-07 22:48 34.56021 -80.97936 31591 ft 436 kts 198°
2026-05-07 22:48 34.53004 -80.98181 32384 ft 433 kts 197°
2026-05-07 22:48 34.50010 -80.98423 33113 ft 429 kts 198°
2026-05-07 22:49 34.47039 -80.98668 33771 ft 427 kts 198°
2026-05-07 22:49 34.44098 -80.98913 34451 ft 422 kts 198°
2026-05-07 22:49 34.41176 -80.99178 35041 ft 420 kts 198°
2026-05-07 22:49 34.38278 -80.99455 35605 ft 417 kts 199°
2026-05-07 22:50 34.35388 -80.99740 35975 ft 418 kts 199°
2026-05-07 22:50 34.32533 -81.00026 36342 ft 417 kts 199°
2026-05-07 22:50 34.29646 -81.00306 36717 ft 416 kts 199°
2026-05-07 22:50 34.26761 -81.00575 36944 ft 415 kts 199°
2026-05-07 22:51 34.23870 -81.00847 36997 ft 421 kts 199°
2026-05-07 22:51 34.18007 -81.01407 37009 ft 423 kts 198°
2026-05-07 22:52 34.12140 -81.01955 37008 ft 423 kts 198°
2026-05-07 22:52 34.06274 -81.02517 37010 ft 423 kts 198°
2026-05-07 22:53 34.00405 -81.03053 37009 ft 423 kts 198°
2026-05-07 22:53 33.94439 -81.03266 37009 ft 435 kts 193°
2026-05-07 22:54 33.88348 -81.03189 37010 ft 438 kts 192°
2026-05-07 22:54 33.82247 -81.03096 37003 ft 438 kts 192°
2026-05-07 22:55 33.76191 -81.03021 37009 ft 439 kts 192°
2026-05-07 22:55 33.70086 -81.02956 36999 ft 439 kts 192°
2026-05-07 22:56 33.63985 -81.02894 37000 ft 439 kts 192°
2026-05-07 22:56 33.57876 -81.02841 37000 ft 440 kts 192°
2026-05-07 22:57 33.51762 -81.02794 37005 ft 439 kts 192°
2026-05-07 22:57 33.45645 -81.02730 37014 ft 440 kts 192°
2026-05-07 22:58 33.39511 -81.02675 37019 ft 442 kts 192°
2026-05-07 22:58 33.33402 -81.02621 37024 ft 442 kts 192°
2026-05-07 22:59 33.27245 -81.02562 37027 ft 443 kts 192°
2026-05-07 22:59 33.21079 -81.02505 37037 ft 444 kts 191°
2026-05-07 23:00 33.14896 -81.02454 37034 ft 445 kts 191°
2026-05-07 23:00 33.08701 -81.02386 37047 ft 446 kts 191°
2026-05-07 23:01 33.02541 -81.02324 37045 ft 445 kts 191°
2026-05-07 23:01 32.96332 -81.02274 37045 ft 447 kts 191°
2026-05-07 23:02 32.90106 -81.02219 37050 ft 448 kts 191°
2026-05-07 23:02 32.83868 -81.02161 37054 ft 449 kts 191°
2026-05-07 23:03 32.77660 -81.02112 37059 ft 449 kts 190°
2026-05-07 23:03 32.71406 -81.02046 37052 ft 450 kts 189°
2026-05-07 23:04 32.65133 -81.01990 37047 ft 451 kts 189°
2026-05-07 23:04 32.58853 -81.01939 37044 ft 451 kts 190°
2026-05-07 23:05 32.52630 -81.01898 37048 ft 450 kts 191°
2026-05-07 23:05 32.46365 -81.01979 37042 ft 450 kts 191°
2026-05-07 23:06 32.40084 -81.02098 37049 ft 452 kts 191°
2026-05-07 23:06 32.33801 -81.02214 37049 ft 452 kts 191°
2026-05-07 23:07 32.27551 -81.02331 37055 ft 452 kts 191°
2026-05-07 23:07 32.21256 -81.02440 37056 ft 452 kts 190°
2026-05-07 23:08 32.14962 -81.02548 37054 ft 453 kts 191°
2026-05-07 23:08 32.08674 -81.02668 37035 ft 452 kts 190°
2026-05-07 23:09 32.02381 -81.02787 37031 ft 453 kts 190°
2026-05-07 23:09 31.96120 -81.02923 37022 ft 455 kts 190°
2026-05-07 23:10 31.89754 -81.03100 37025 ft 459 kts 189°
2026-05-07 23:10 31.83356 -81.03279 37027 ft 460 kts 189°
2026-05-07 23:11 31.76959 -81.03447 37032 ft 460 kts 190°
2026-05-07 23:11 31.73602 -81.03538 37034 ft 460 kts 189°
2026-05-07 23:12 31.68402 -81.03690 37036 ft 460 kts 190°
2026-05-07 23:12 31.62003 -81.03861 37043 ft 460 kts 190°
2026-05-07 23:13 31.55669 -81.04125 37052 ft 457 kts 192°
2026-05-07 23:13 31.49306 -81.04525 37054 ft 458 kts 192°
2026-05-07 23:14 31.42941 -81.04942 37054 ft 458 kts 192°
2026-05-07 23:14 31.36569 -81.05366 37057 ft 459 kts 191°
2026-05-07 23:15 31.30188 -81.05780 37065 ft 459 kts 191°
2026-05-07 23:15 31.23795 -81.06132 37064 ft 461 kts 190°
2026-05-07 23:16 31.17406 -81.06297 37081 ft 463 kts 189°
2026-05-07 23:16 31.10960 -81.06411 37079 ft 463 kts 189°
2026-05-07 23:17 31.04513 -81.06527 37074 ft 463 kts 189°
2026-05-07 23:17 30.98064 -81.06658 37074 ft 464 kts 189°
2026-05-07 23:18 30.91642 -81.06804 37082 ft 465 kts 189°
2026-05-07 23:18 30.85176 -81.06935 37084 ft 465 kts 189°
2026-05-07 23:19 30.78708 -81.07045 37084 ft 465 kts 189°
2026-05-07 23:19 30.72241 -81.07180 37082 ft 465 kts 189°
2026-05-07 23:20 30.65777 -81.07331 37085 ft 466 kts 189°
2026-05-07 23:20 30.59356 -81.07549 37083 ft 464 kts 191°
2026-05-07 23:21 30.52920 -81.07957 37082 ft 463 kts 191°
2026-05-07 23:21 30.46482 -81.08380 37084 ft 463 kts 191°
2026-05-07 23:22 30.40044 -81.08772 37084 ft 464 kts 191°
2026-05-07 23:22 30.33585 -81.09151 37076 ft 465 kts 191°
2026-05-07 23:23 30.27174 -81.09528 37082 ft 464 kts 191°
2026-05-07 23:23 30.20720 -81.09922 37083 ft 464 kts 191°
2026-05-07 23:24 30.14264 -81.10304 37083 ft 464 kts 191°
2026-05-07 23:24 30.07818 -81.10692 37094 ft 464 kts 191°
2026-05-07 23:25 30.01359 -81.11066 37098 ft 465 kts 191°
2026-05-07 23:25 29.94946 -81.11449 37097 ft 467 kts 190°
2026-05-07 23:26 29.88464 -81.11844 37095 ft 467 kts 191°
2026-05-07 23:26 29.81968 -81.12211 37094 ft 469 kts 189°
2026-05-07 23:27 29.72147 -81.12331 37094 ft 472 kts 187°
2026-05-07 23:27 29.65632 -81.12333 37103 ft 471 kts 187°
2026-05-07 23:28 29.59084 -81.12359 37108 ft 470 kts 187°
2026-05-07 23:28 29.52552 -81.12516 37116 ft 469 kts 189°
2026-05-07 23:29 29.46016 -81.12771 37112 ft 470 kts 189°
2026-05-07 23:29 29.39535 -81.13039 37114 ft 470 kts 189°
2026-05-07 23:30 29.33005 -81.13295 37102 ft 469 kts 189°
2026-05-07 23:30 29.26430 -81.12592 37098 ft 485 kts 172°
2026-05-07 23:31 29.19968 -81.10138 37104 ft 492 kts 166°
2026-05-07 23:31 29.13540 -81.07468 37099 ft 491 kts 167°
2026-05-07 23:32 29.07135 -81.04951 37103 ft 490 kts 167°
2026-05-07 23:32 29.00671 -81.02497 37097 ft 489 kts 167°
2026-05-07 23:33 28.94209 -81.00061 37101 ft 488 kts 168°
2026-05-07 23:33 28.87752 -80.97638 37096 ft 489 kts 168°
2026-05-07 23:34 28.81281 -80.95200 37101 ft 489 kts 167°
2026-05-07 23:34 28.74859 -80.92757 37099 ft 491 kts 166°
2026-05-07 23:35 28.68505 -80.89889 37103 ft 494 kts 163°
2026-05-07 23:35 28.62188 -80.86810 37098 ft 494 kts 162°
2026-05-07 23:36 28.55870 -80.83741 37094 ft 494 kts 162°
2026-05-07 23:36 28.49536 -80.80699 37111 ft 494 kts 162°
2026-05-07 23:37 28.43206 -80.77674 37120 ft 493 kts 162°
2026-05-07 23:37 28.36931 -80.74699 36988 ft 491 kts 162°
2026-05-07 23:38 28.30577 -80.71672 36971 ft 492 kts 162°
2026-05-07 23:38 28.24301 -80.68688 36971 ft 492 kts 162°
2026-05-07 23:39 28.17867 -80.66178 36971 ft 487 kts 169°
2026-05-07 23:39 28.11326 -80.64226 36979 ft 486 kts 171°
2026-05-07 23:40 28.04789 -80.62333 36978 ft 486 kts 171°
2026-05-07 23:40 27.98249 -80.60379 36973 ft 486 kts 170°
2026-05-07 23:41 27.91723 -80.58378 36970 ft 486 kts 169°
2026-05-07 23:41 27.85189 -80.56401 36982 ft 486 kts 170°
2026-05-07 23:42 27.78701 -80.54446 36986 ft 486 kts 170°
2026-05-07 23:42 27.72123 -80.52482 36990 ft 486 kts 170°
2026-05-07 23:43 27.65637 -80.50537 36993 ft 486 kts 169°
2026-05-07 23:43 27.59179 -80.48220 36998 ft 484 kts 165°
2026-05-07 23:44 27.56076 -80.46967 36776 ft 465 kts 165°
2026-05-07 23:44 27.53074 -80.45736 36422 ft 455 kts 165°
2026-05-07 23:44 27.50106 -80.44530 35902 ft 454 kts 165°
2026-05-07 23:44 27.47131 -80.43332 35275 ft 454 kts 165°
2026-05-07 23:45 27.44139 -80.42137 34651 ft 458 kts 166°
2026-05-07 23:45 27.41126 -80.40939 34020 ft 461 kts 166°
2026-05-07 23:45 27.38089 -80.39734 33395 ft 463 kts 166°
2026-05-07 23:45 27.35046 -80.38528 32787 ft 464 kts 166°
2026-05-07 23:46 27.32036 -80.37334 32166 ft 466 kts 165°
2026-05-07 23:46 27.28978 -80.36118 31518 ft 468 kts 165°
2026-05-07 23:46 27.25906 -80.34896 30846 ft 468 kts 165°
2026-05-07 23:46 27.22832 -80.33684 30181 ft 469 kts 165°
2026-05-07 23:47 27.19747 -80.32477 29512 ft 470 kts 165°
2026-05-07 23:47 27.16647 -80.31272 28838 ft 472 kts 165°
2026-05-07 23:47 27.13533 -80.30067 28176 ft 473 kts 165°
2026-05-07 23:47 27.10417 -80.28863 27502 ft 475 kts 165°
2026-05-07 23:48 27.07287 -80.27648 26828 ft 476 kts 165°
2026-05-07 23:48 27.04152 -80.26426 26153 ft 478 kts 165°
2026-05-07 23:48 27.01048 -80.25219 25495 ft 479 kts 165°
2026-05-07 23:48 26.97898 -80.23999 24807 ft 477 kts 165°
2026-05-07 23:49 26.94771 -80.22795 24122 ft 474 kts 165°
2026-05-07 23:49 26.91669 -80.21593 23443 ft 470 kts 164°
2026-05-07 23:49 26.88602 -80.20397 22776 ft 463 kts 165°
2026-05-07 23:49 26.85567 -80.19229 22103 ft 458 kts 164°
2026-05-07 23:50 26.82574 -80.18099 21477 ft 452 kts 166°
2026-05-07 23:50 26.79601 -80.16985 21095 ft 448 kts 164°
2026-05-07 23:50 26.76668 -80.15893 20927 ft 435 kts 164°
2026-05-07 23:50 26.73872 -80.14851 20629 ft 415 kts 165°
2026-05-07 23:51 26.71161 -80.13914 20102 ft 403 kts 167°
2026-05-07 23:51 26.68507 -80.13129 19435 ft 398 kts 169°
2026-05-07 23:51 26.65835 -80.12403 18770 ft 392 kts 169°
2026-05-07 23:51 26.63192 -80.11706 18115 ft 389 kts 169°
2026-05-07 23:52 26.60575 -80.11013 17471 ft 385 kts 169°
2026-05-07 23:52 26.57983 -80.10351 16842 ft 380 kts 169°
2026-05-07 23:52 26.55419 -80.09716 16224 ft 375 kts 169°
2026-05-07 23:52 26.52883 -80.09085 15626 ft 371 kts 169°
2026-05-07 23:53 26.50385 -80.08460 15024 ft 365 kts 169°
2026-05-07 23:53 26.47913 -80.07843 14435 ft 362 kts 169°
2026-05-07 23:53 26.45463 -80.07264 13843 ft 359 kts 170°
2026-05-07 23:53 26.43061 -80.06739 13346 ft 353 kts 170°
2026-05-07 23:54 26.40661 -80.06224 13051 ft 350 kts 170°
2026-05-07 23:54 26.38281 -80.05653 12971 ft 349 kts 168°
2026-05-07 23:54 26.35977 -80.05045 12967 ft 327 kts 167°
2026-05-07 23:54 26.33811 -80.04457 12962 ft 315 kts 167°
2026-05-07 23:55 26.31692 -80.03877 12963 ft 313 kts 167°
2026-05-07 23:55 26.29576 -80.03293 12955 ft 313 kts 167°
2026-05-07 23:55 26.27460 -80.02705 12961 ft 313 kts 167°
2026-05-07 23:55 26.25321 -80.02358 12953 ft 311 kts 182°
2026-05-07 23:56 26.23203 -80.02594 12961 ft 310 kts 191°
2026-05-07 23:56 26.21083 -80.03036 12959 ft 310 kts 193°
2026-05-07 23:56 26.18973 -80.03538 12957 ft 310 kts 193°
2026-05-07 23:56 26.16864 -80.04049 12958 ft 310 kts 193°
2026-05-07 23:57 26.14755 -80.04559 12958 ft 310 kts 193°
2026-05-07 23:57 26.12643 -80.05059 12959 ft 311 kts 193°
2026-05-07 23:57 26.10536 -80.05556 12957 ft 310 kts 193°
2026-05-07 23:57 26.08430 -80.06044 12959 ft 310 kts 193°
2026-05-07 23:58 26.06315 -80.06559 12956 ft 310 kts 194°
2026-05-07 23:58 26.04211 -80.07100 12876 ft 310 kts 194°
2026-05-07 23:58 26.02138 -80.07637 12783 ft 310 kts 194°
2026-05-07 23:58 26.00043 -80.08183 12693 ft 309 kts 194°
2026-05-07 23:59 25.97943 -80.08736 12229 ft 310 kts 194°
2026-05-07 23:59 25.95849 -80.09280 11654 ft 309 kts 194°
2026-05-07 23:59 25.93758 -80.09845 11094 ft 309 kts 198°
2026-05-07 23:59 25.91850 -80.10883 10544 ft 306 kts 218°
2026-05-08 00:00 25.90297 -80.12472 10100 ft 301 kts 227°
2026-05-08 00:00 25.88926 -80.14213 9574 ft 299 kts 234°
2026-05-08 00:00 25.88025 -80.16245 9152 ft 292 kts 256°
2026-05-08 00:00 25.87759 -80.18405 8798 ft 271 kts 266°
2026-05-08 00:01 25.87697 -80.20410 8451 ft 250 kts 269°
2026-05-08 00:01 25.87661 -80.22302 8086 ft 241 kts 269°
2026-05-08 00:01 25.87626 -80.24154 7713 ft 239 kts 268°
2026-05-08 00:01 25.87590 -80.25984 7339 ft 237 kts 268°
2026-05-08 00:02 25.87568 -80.27798 6968 ft 234 kts 272°
2026-05-08 00:02 25.87932 -80.29546 6601 ft 233 kts 292°
2026-05-08 00:02 25.88627 -80.31160 6364 ft 230 kts 296°
2026-05-08 00:02 25.89370 -80.32737 6339 ft 229 kts 296°
2026-05-08 00:03 25.90107 -80.34301 6335 ft 228 kts 298°
2026-05-08 00:03 25.90844 -80.35848 6317 ft 224 kts 298°
2026-05-08 00:03 25.91572 -80.37367 5928 ft 223 kts 300°
2026-05-08 00:03 25.92318 -80.38901 5565 ft 226 kts 297°
2026-05-08 00:04 25.92812 -80.39937 5386 ft 225 kts 298°
2026-05-08 00:04 25.93460 -80.41500 5291 ft 227 kts 285°
2026-05-08 00:04 25.93647 -80.43230 5291 ft 227 kts 272°
2026-05-08 00:04 25.93652 -80.44947 5286 ft 228 kts 270°
2026-05-08 00:05 25.93630 -80.46700 5284 ft 227 kts 269°
2026-05-08 00:05 25.93571 -80.48453 5284 ft 227 kts 268°
2026-05-08 00:05 25.93239 -80.50159 5278 ft 228 kts 244°
2026-05-08 00:05 25.92184 -80.51451 5280 ft 230 kts 212°
2026-05-08 00:06 25.90656 -80.51947 5281 ft 232 kts 180°
2026-05-08 00:06 25.89112 -80.51477 5277 ft 234 kts 147°
2026-05-08 00:06 25.87983 -80.50231 4760 ft 231 kts 120°
2026-05-08 00:06 25.87596 -80.48531 4308 ft 230 kts 89°
2026-05-08 00:07 25.87741 -80.46758 3946 ft 230 kts 83°
2026-05-08 00:07 25.87583 -80.44962 3540 ft 228 kts 113°
2026-05-08 00:07 25.86797 -80.43463 3288 ft 242 kts 127°
2026-05-08 00:07 25.86169 -80.42455 3220 ft 230 kts 123°
2026-05-08 00:08 25.85128 -80.40507 3168 ft 201 kts 119°
2026-05-08 00:08 25.84451 -80.38993 2505 ft 194 kts 115°
2026-05-08 00:08 25.83915 -80.37840 2084 ft 183 kts 121°
2026-05-08 00:08 25.83233 -80.36671 1647 ft 166 kts 123°
2026-05-08 00:09 25.82688 -80.35617 1132 ft 154 kts 118°
2026-05-08 00:09 25.82145 -80.34529 832 ft 148 kts 121°
2026-05-08 00:09 25.81679 -80.33640 720 ft 141 kts 120°
2026-05-08 00:09 25.81194 -80.32708 562 ft 139 kts 120°
2026-05-08 00:10 25.80710 -80.31760 409 ft 141 kts 119°
2026-05-08 00:10 25.80225 -80.30803 211 ft 142 kts 119°
2026-05-08 00:10 25.79768 -80.29910 29 ft 123 kts 120°
2026-05-08 00:10 25.79432 -80.29261 24 ft 69 kts 119°
2026-05-08 00:11 25.79267 -80.28962 21 ft 30 kts 129°
2026-05-08 00:11 25.79150 -80.28885 21 ft 9 kts 175°
2026-05-08 00:11 25.79110 -80.28910 24 ft 7 kts 243°
2026-05-08 00:11 25.79136 -80.28993 23 ft 18 kts 296°
2026-05-08 00:12 25.79206 -80.29144 22 ft 23 kts 293°
2026-05-08 00:12 25.79265 -80.29300 25 ft 19 kts 296°
2026-05-08 00:12 25.79270 -80.29341 22 ft 2 kts 248°
2026-05-08 00:12 25.79252 -80.29381 25 ft 7 kts 253°
2026-05-08 00:13 25.79244 -80.29411 26 ft 0 kts 253°